Regional Weather Roundup
Issued by NWS

Home | Current Version | Previous Version | Text Only | Print | Product List | Glossary On
Versions: 1 2 3 4 5 6 7 8 9 10 11 12 13 14 15 16 17 18 19 20 21 22 23 24 25 26 27 28 29 30 31 32 33 34 35 36 37 38 39 40 41 42 43 44 45 46 47 48 49 50
000
ASUS43 KMKX 161510
RWRWI

WISCONSIN REGIONAL WEATHER ROUNDUP
NATIONAL WEATHER SERVICE MILWAUKEE/SULLIVAN WI
1000 AM CDT TUE APR 16 2024

NOTE: "FAIR" INDICATES FEW OR NO CLOUDS BELOW 12,000 FEET WITH NO
SIGNIFICANT WEATHER AND/OR OBSTRUCTIONS TO VISIBILITY.

WIZ001-002-006>008-014>016-023>028-161600-
NORTHWEST WISCONSIN

CITY           SKY/WX    TMP DP  RH WIND       PRES   REMARKS
SUPERIOR ARPT  PTSUNNY   42  34  71 E14G22    30.01F TC   6
ASHLAND        PTSUNNY   53  28  38 E16G23    30.05F TC  12
HAYWARD        PTSUNNY   52  27  38 E15G29    29.97F TC  11
SIREN          CLOUDY    51  25  36 E17G23    29.92F TC  11
CUMBERLAND     CLOUDY    52  28  40 SE21G32   29.93F TC  11
RICE LAKE      CLOUDY    51  25  36 E14G24    29.96F TC  10
CHETEK         CLOUDY    53  29  39 SE13G30   29.96S TC  12
LADYSMITH      PTSUNNY  N/A N/A N/A E14       30.02F
EAU CLAIRE     CLOUDY    52  29  41 E23G37    29.94F TC  11
MENOMONIE      CLOUDY    52  28  39 E15G24    29.91F TC  11
NEW RICHMOND   CLOUDY    50  26  38 E28G39    29.81F TC  10
OSCEOLA        CLOUDY    52  29  42 E25G32    29.86F TC  11
$$

WIZ003>005-009-010-017-018-161600-
NORTH CENTRAL WISCONSIN

CITY           SKY/WX    TMP DP  RH WIND       PRES   REMARKS
MANITOWISH WTR PTSUNNY   47  25  42 E14G21    30.09F TC   8
ARBOR VITAE    PTSUNNY   47  26  43 E15G25    30.08F TC   9
WOODRUFF       PTSUNNY   47  26  43 E15G25    30.08F TC   9
RHINELANDER    PTSUNNY   50  26  39 E21G28    30.09F TC  10
EAGLE RIVER    PTSUNNY   49  25  39 E18       30.11F TC  10
LAND O LAKES   PTSUNNY   48  24  39 SE10G22   30.14F TC   9
PHILLIPS       PTSUNNY   49  26  41 E13G18    30.02F TC   9
TOMAHAWK       PTSUNNY   52  22  31 E14G21    30.06F TC  11
MEDFORD        PTSUNNY   48  20  33 E13G23    30.03R TC   9
MERRILL        PTSUNNY   48  26  42 E17G28    30.04F TC   9
$$

WIZ029-030-035-036-043>047-161600-
CENTRAL WISCONSIN

CITY           SKY/WX    TMP DP  RH WIND       PRES   REMARKS
WAUSAU         CLOUDY    49  27  42 E15G22    30.05S TC   9
MOSINEE        CLOUDY    48  28  46 E16G24    30.05S TC   9
MARSHFIELD     CLOUDY    48  31  51 E16G28    30.00F TC   9
STEVENS POINT  CLOUDY    52  35  51 E15G23    30.06R TC  11
WAUPACA        PTSUNNY   55  33  44 E14G20    30.08R TC  13
WAUTOMA        PTSUNNY   54  34  46 E12G22    30.04F TC  12
WISC RAPIDS    CLOUDY    51  32  48 E15G25    30.02F TC  11
CAMP DOUGLAS   PTSUNNY   53  33  45 E17       29.94F TC  12
$$

WIZ011>013-019>022-031-037>040-048>050-161600-
NORTHEAST WISCONSIN

CITY           SKY/WX    TMP DP  RH WIND       PRES   REMARKS
ANTIGO         PTSUNNY   47  29  49 E20       30.09F TC   9
SHAWANO        PTSUNNY   53  29  40 E15       30.11F TC  11
OCONTO         PTSUNNY   49  31  50 NE12G18   30.14F TC   9
STURGEON BAY   PTSUNNY   49  31  49 E16       30.16F TC   9
GREEN BAY      PTSUNNY   53  35  50 E13G22    30.12F TC  12
MANITOWOC      MOSUNNY   50  35  56 E14       30.13S TC  10
APPLETON       PTSUNNY   54  36  50 E13G25    30.09F TC  12
CLINTONVILLE   PTSUNNY   52  33  48 E10G22    30.11R TC  11
OSHKOSH        PTSUNNY   55  38  52 SE20G26   30.07S TC  13
$$

WIZ032>034-041-042-053>061-161600-
SOUTHWEST WISCONSIN

CITY           SKY/WX    TMP DP  RH WIND       PRES   REMARKS
LA CROSSE      LGT RAIN  50  35  56 E13G20    29.89F TC  10
SPARTA         CLOUDY    52  32  46 E18G24    29.92F TC  11
VIROQUA        CLOUDY    52  30  43 E24       29.88F TC  11
BOSCOBEL       CLOUDY    59  35  40 E7G18     29.87F TC  15
PRAIRIE DU CHI CLOUDY    59  31  33 E18G26    29.83F TC  15
PLATTEVILLE    CLOUDY    59  34  39 E22       29.87F TC  15
$$

WIZ056-057-062-063-064-067-068-161600-
SOUTH CENTRAL WISCONSIN

CITY           SKY/WX    TMP DP  RH WIND       PRES   REMARKS
REEDSBURG      PTSUNNY   54  33  44 E8G17     29.97S TC  12
BARABOO/DELLS  PTSUNNY   55  35  46 E17G23    29.97F TC  13
LONE ROCK      PTSUNNY   59  35  40 E22G31    29.92F TC  15
MINERAL POINT  CLOUDY    55  32  41 E17G28    29.91F TC  13
MADISON        PTSUNNY   59  36  42 E17G30    29.97F TC  15
MIDDLETON      PTSUNNY   58  42  56 E17G24    29.96F TC  14
WATERTOWN      PTSUNNY   57  42  57 E18       30.01F TC  14
MONROE         PTSUNNY   60  41  49 E22G28    29.91F TC  16
JANESVILLE     PTSUNNY   64  21  19 E22G35    29.95F TC  18
$$

WIZ051-052-058>065-066-070>072-161600-
SOUTHEAST WISCONSIN

CITY           SKY/WX    TMP DP  RH WIND       PRES   REMARKS
MILWAUKEE      PTSUNNY   51  40  65 E15       30.06F TC  11
WAUKESHA       SUNNY     52  36  54 E15G25    30.06S TC  11
MILWAUKEE/TIMM MOSUNNY   52  36  54 E10G21    30.08F TC  11
RACINE         PTSUNNY   51  38  60 E18G26    30.07F TC  11
KENOSHA        MOSUNNY   55  40  56 E15       30.05S TC  13
FOND DU LAC    PTSUNNY   58  36  43 SE21G26   30.06S TC  14
SHEBOYGAN      MOSUNNY   48  31  51 E14G22    30.11S TC   9
WEST BEND      MOSUNNY   52  34  50 E16       30.08S TC  11
JUNEAU         PTSUNNY   54  35  47 E17G23    30.04F TC  12
$$

LSZ147-162-161600-
LAKE SUPERIOR

STATION/POSITION TIME  TEMP    WIND        PRES    WAVE
                       AIR SEA DIR/SP/G            HT/PER
                 (UTC) (F)     (DEG/KT/KT) (MB)    (FT/S)
DEVILS ISLAND    1500   40      70/ 18/ 20 1020.4F
PORT WING        1440   52      80/ 13/ 21 1017.6F
SAXON HARBOR     1430   51      70/  3/ 12 1019.0F
$$

LMZ867-665-643>646-161600-
LAKE MICHIGAN

STATION/POSITION TIME  TEMP    WIND        PRES    WAVE
                       AIR SEA DIR/SP/G            HT/PER
                 (UTC) (F)     (DEG/KT/KT) (MB)    (FT/S)
CHAMBERS ISLAND  1440   44      30/  8/ 11   N/A
NORTHPORT PIER   1400           60/ 10/ 13 1023.0
KEWAUNEE LAKESHO 1430   43      40/ 10/ 13 1019.5F
SHEBOYGAN LAKESH 1500   42      30/  7/  8 1019.8R
PORT WASHINGTON  1440   47      50/  8/ 12 1020.0F
MILWAUKEE LAKESH 1450   46      60/  6/  8   N/A
KENOSHA   LAKESH 1500   47      80/  3/  4 1017.9
$$

TC  - TEMPERATURE IN CELSIUS
VSB - VISIBILITY IN STATUTE MILES
WCI - WIND CHILL INDEX
HX  - HEAT INDEX




USA.gov is the U.S. government's official web portal to all federal, state and local government web resources and services.